Content
SEND FEEDBACK

Daily
Averages
Monthly
Summary
United States of America

BRODHEAD, WISCONSIN


Home > North America > United States > Wisconsin
Elevation: 789 feet     Latitude: 42 37N     Longitude: 089 22W

WEATHER
 
SELECT A DAY
Number of Records: 368,009;   Date Range: 1/1/99 - 11/23/14
 
SHARE

PRINT THIS DATA

[ ← Previous Day ]
WEATHER ALMANAC - JANUARY 31, 2013
[ Next Day → ]
[ °C ]   °F
Weather ElementAverageHighLow
Temperature9 °F15.8 °F (12:35 am)-0.4 °F (11:35 pm)
Dewpoint2.5 °F12.2 °F (3:15 am)-5.8 °F (9:15 pm)
Humidity75.1 %93 % (4:15 am)67 % (11:15 am)
Barometer29.86 in30.13 in (11:35 pm)29.63 in (12:35 am)
Wind Speed17.1 mph23 mph (4:15 am)
Wind Gust29.9 mph (3:35 pm)
Weather ElementAverage
Visibility7.8 mi
Wind DirectionW (274 °)

Weather ElementTotal
Precipitation---
Heating Degree Days57.3 (Base 65)
Averaged from 70 records on January 31, 2013
WEATHER CONDITIONS BREAKOUT
WIND DIRECTION BREAKOUT
WEATHER BY HOUR - JANUARY 31, 2013
[ °C ]   °F
Local TimeTemperatureDewpointHumidityBarometerVisibilityWind DirectionWind SpeedGust SpeedPrecipitationEventsConditions
12:35 AM15.8 °F8.6 °F73 %29.63 in10.0 miWNW (290°)17.3 mph27.6 mphOvercast
12:55 AM15.8 °F8.6 °F73 %29.64 in10.0 miWNW (290°)16.1 mph28.8 mphOvercast
1:15 AM15.8 °F8.6 °F73 %29.64 in7.0 miWNW (300°)11.5 mph23.0 mphSnowLight Snow
1:35 AM15.8 °F8.6 °F73 %29.65 in10.0 miWNW (290°)16.1 mph23.0 mphOvercast
1:55 AM15.8 °F8.6 °F73 %29.66 in10.0 miNW (310°)8.1 mph20.7 mphOvercast
2:15 AM15.8 °F8.6 °F73 %29.67 in10.0 miWNW (300°)12.7 mph17.3 mphOvercast
2:35 AM14.0 °F8.6 °F79 %29.67 in10.0 miWNW (290°)10.4 mphOvercast
2:55 AM14.0 °F10.4 °F86 %29.67 in7.0 miWest (280°)9.2 mphSnowLight Snow
3:15 AM15.8 °F12.2 °F86 %29.67 in3.0 miWest (270°)17.3 mph21.9 mphSnowLight Snow
3:35 AM14.0 °F8.6 °F79 %29.68 in10.0 miWest (280°)18.4 mph27.6 mphOvercast
3:55 AM14.0 °F8.6 °F79 %29.68 in10.0 miWest (270°)16.1 mph20.7 mphOvercast
4:15 AM14.0 °F12.2 °F93 %29.69 in3.0 miWest (260°)23.0 mphSnowLight Snow
4:35 AM14.0 °F12.2 °F93 %29.69 in5.0 miWest (260°)20.7 mphSnowLight Snow
4:55 AM14.0 °F12.2 °F93 %29.69 in5.0 miWest (260°)20.7 mphSnowLight Snow
5:15 AM12.2 °F10.4 °F92 %29.69 in5.0 miWest (260°)18.4 mph24.2 mphSnowLight Snow
5:35 AM12.2 °F10.4 °F92 %29.70 in10.0 miWest (260°)18.4 mph23.0 mphMostly Cloudy
5:55 AM12.2 °F8.6 °F85 %29.70 in10.0 miWest (260°)17.3 mphMostly Cloudy
6:15 AM12.2 °F8.6 °F85 %29.72 in10.0 miWest (270°)19.6 mph25.3 mphMostly Cloudy
6:35 AM12.2 °F8.6 °F85 %29.72 in10.0 miWest (270°)19.6 mph23.0 mphOvercast
6:55 AM10.4 °F5.0 °F79 %29.73 in10.0 miWest (270°)19.6 mph25.3 mphOvercast
7:15 AM10.4 °F3.2 °F73 %29.75 in10.0 miWest (270°)23.0 mph27.6 mphScattered Clouds
7:35 AM8.6 °F3.2 °F79 %29.75 in10.0 miWest (270°)16.1 mph24.2 mphMostly Cloudy
7:55 AM8.6 °F3.2 °F79 %29.76 in10.0 miWest (270°)16.1 mph24.2 mphScattered Clouds
8:15 AM8.6 °F1.4 °F73 %29.77 in10.0 miWest (270°)16.1 mph23.0 mphScattered Clouds
8:35 AM8.6 °F3.2 °F79 %29.78 in10.0 miWest (270°)18.4 mph21.9 mphMostly Cloudy
8:55 AM10.4 °F3.2 °F73 %29.78 in10.0 miWest (270°)11.5 mph20.7 mphScattered Clouds
9:15 AM10.4 °F3.2 °F73 %29.79 in10.0 miWest (270°)16.1 mph23.0 mphClear
9:35 AM10.4 °F3.2 °F73 %29.80 in10.0 miWest (280°)16.1 mph21.9 mphClear
9:55 AM10.4 °F3.2 °F73 %29.80 in10.0 miWest (280°)18.4 mph25.3 mphClear
10:15 AM10.4 °F3.2 °F73 %29.82 in10.0 miWest (270°)16.1 mph24.2 mphScattered Clouds
10:35 AM10.4 °F3.2 °F73 %29.82 in10.0 miWest (280°)17.3 mph20.7 mphOvercast
10:55 AM10.4 °F3.2 °F73 %29.83 in7.0 miWest (280°)16.1 mph19.6 mphOvercast
11:15 AM12.2 °F3.2 °F67 %29.84 in5.0 miWest (270°)17.3 mph20.7 mphHaze
11:35 AM12.2 °F3.2 °F67 %29.84 in5.0 miWest (280°)15.0 mph20.7 mphHaze
11:55 AM12.2 °F3.2 °F67 %29.84 in5.0 miWest (270°)12.7 mph21.9 mphHaze
12:15 PM12.2 °F3.2 °F67 %29.85 in7.0 miWest (270°)16.1 mph21.9 mphOvercast
12:35 PM12.2 °F3.2 °F67 %29.85 in5.0 miWest (280°)17.3 mph24.2 mphHaze
12:55 PM12.2 °F3.2 °F67 %29.86 in2.5 miWest (280°)16.1 mph23.0 mphHaze
1:15 PM10.4 °F3.2 °F73 %29.87 in5.0 miWest (260°)18.4 mph23.0 mphHaze
1:35 PM10.4 °F3.2 °F73 %29.87 in2.0 miWest (270°)17.3 mph25.3 mphHaze
2:15 PM10.4 °F3.2 °F73 %29.88 in1.8 miWest (260°)23.0 mphHaze
2:35 PM10.4 °F1.4 °F67 %29.89 in5.0 miWest (260°)21.9 mph26.5 mphHaze
2:55 PM10.4 °F1.4 °F67 %29.89 in7.0 miWest (260°)23.0 mph28.8 mphOvercast
3:15 PM8.6 °F1.4 °F73 %29.90 in4.0 miWest (260°)21.9 mph27.6 mphHaze
3:35 PM8.6 °F1.4 °F73 %29.91 in5.0 miWest (270°)19.6 mph29.9 mphHaze
3:55 PM8.6 °F1.4 °F73 %29.92 in7.0 miWest (270°)17.3 mph28.8 mphOvercast
4:15 PM8.6 °F-0.4 °F67 %29.93 in5.0 miWest (270°)19.6 mph26.5 mphHaze
4:35 PM6.8 °F-0.4 °F72 %29.94 in5.0 miWest (270°)21.9 mph26.5 mphHaze
4:55 PM6.8 °F-0.4 °F72 %29.95 in5.0 miWest (270°)17.3 mph24.2 mphHaze
5:15 PM5.0 °F-2.2 °F72 %29.95 in4.0 miWest (270°)23.0 mph29.9 mphHaze
5:35 PM5.0 °F-2.2 °F72 %29.97 in7.0 miWest (270°)17.3 mph23.0 mphOvercast
5:55 PM5.0 °F-2.2 °F72 %29.98 in7.0 miWest (270°)19.6 mphOvercast
6:15 PM5.0 °F-2.2 °F72 %29.99 in7.0 miWest (270°)20.7 mph25.3 mphOvercast
6:35 PM5.0 °F-2.2 °F72 %30.00 in7.0 miWest (270°)18.4 mph24.2 mphOvercast
6:55 PM3.2 °F-4.0 °F72 %30.01 in7.0 miWest (270°)17.3 mph25.3 mphOvercast
7:15 PM3.2 °F-2.2 °F78 %30.02 in7.0 miWest (270°)17.3 mph26.5 mphOvercast
7:35 PM3.2 °F-2.2 °F78 %30.03 in7.0 miWest (280°)16.1 mph25.3 mphOvercast
7:55 PM3.2 °F-4.0 °F72 %30.04 in10.0 miWest (280°)15.0 mph21.9 mphScattered Clouds
8:15 PM3.2 °F-4.0 °F72 %30.05 in10.0 miWest (280°)16.1 mph21.9 mphClear
8:35 PM3.2 °F-4.0 °F72 %30.06 in10.0 miWest (280°)17.3 mph20.7 mphClear
8:55 PM3.2 °F-4.0 °F72 %30.07 in10.0 miWest (280°)18.4 mph24.2 mphClear
9:15 PM1.4 °F-5.8 °F72 %30.08 in10.0 miWNW (290°)16.1 mph25.3 mphClear
9:35 PM1.4 °F-5.8 °F72 %30.09 in10.0 miWNW (290°)16.1 mph23.0 mphClear
9:55 PM1.4 °F-5.8 °F72 %30.10 in10.0 miWest (280°)15.0 mph18.4 mphClear
10:15 PM1.4 °F-5.8 °F72 %30.10 in10.0 miWest (270°)12.7 mphClear
10:35 PM1.4 °F-5.8 °F72 %30.11 in10.0 miWest (270°)11.5 mph18.4 mphClear
10:55 PM1.4 °F-5.8 °F72 %30.11 in10.0 miWest (280°)13.8 mph18.4 mphClear
11:15 PM1.4 °F-5.8 °F72 %30.11 in10.0 miWest (280°)15.0 mph20.7 mphClear
11:35 PM-0.4 °F-5.8 °F78 %30.13 in10.0 miWest (270°)16.1 mphClear
11:55 PM-0.4 °F-5.8 °F78 %30.13 in10.0 miWest (270°)15.0 mphClear
Hourly data recorded from KEFT, located miles away from Brodhead, Wisconsin







STORIES FROM OUR PARTNERS